Location: Chomutov
(50.4500°N, 13.4333°E)
Time: 00:42:57
(UTC+02:00)

FO-29 - Pass Details

Date: 01 October 2021
Orbit: 800 x 1321 km, 98.6° (Epoch: 27 October)

Event Time Altitude Azimuth Distance (km) Brightness Sun altitude
Exits shadow 20:55:09 32° 131° (SE) 2,108 10.7 -21.3°
Maximum altitude 20:58:57 59° 67° (ENE) 1,500 10.2 -21.9°
Drops below altitude 10° 21:06:36 10° 350° (N) 3,324 12.7 -23.0°
Sets 21:09:18 0° 348° (NNW) 4,263 13.4 -23.4°
